| time (UTC) | temp F | wind direction | speed MPH | gust MPH | rain 1hr in | rain 24hr in | rain mn in | humidity % | barometer mb |
| 20260505183603 | 51 | 288 | 1.0 | 6.0 | 0.00 | 0.00 | 0.00 | 76 | 1014.6 |
| 20260505183403 | 51 | 321 | 3.0 | 6.0 | 0.00 | 0.00 | 0.00 | 75 | 1014.6 |
| 20260505183203 | 51 | 98 | 2.0 | 6.0 | 0.00 | 0.00 | 0.00 | 75 | 1014.6 |
| 20260505183004 | 51 | 94 | 1.0 | 5.0 | 0.00 | 0.00 | 0.00 | 76 | 1014.6 |
| 20260505182804 | 51 | 112 | 1.0 | 5.0 | 0.00 | 0.00 | 0.00 | 75 | 1014.5 |
| 20260505182603 | 51 | 15 | 1.0 | 4.0 | 0.00 | 0.00 | 0.00 | 75 | 1014.6 |
| 20260505182403 | 51 | 72 | 1.0 | 4.0 | 0.00 | 0.00 | 0.00 | 75 | 1014.7 |
| 20260505182206 | 51 | 340 | 2.0 | 4.0 | 0.00 | 0.00 | 0.00 | 75 | 1014.6 |
| 20260505181804 | 51 | 27 | 1.0 | 5.0 | 0.00 | 0.00 | 0.00 | 75 | 1014.6 |
| 20260505181603 | 51 | 41 | 1.0 | 5.0 | 0.00 | 0.00 | 0.00 | 75 | 1014.5 |
| 20260505181405 | 51 | 336 | 1.0 | 5.0 | 0.00 | 0.00 | 0.00 | 74 | 1014.5 |
| 20260505181204 | 51 | 7 | 0.0 | 5.0 | 0.00 | 0.00 | 0.00 | 74 | 1014.6 |
| 20260505181006 | 51 | 89 | 1.0 | 5.0 | 0.00 | 0.00 | 0.00 | 74 | 1014.5 |
| 20260505180804 | 51 | 167 | 0.0 | 5.0 | 0.00 | 0.00 | 0.00 | 74 | 1014.5 |
| 20260505180605 | 51 | 101 | 1.0 | 7.0 | 0.00 | 0.00 | 0.00 | 73 | 1014.5 |
| 20260505180404 | 51 | 49 | 1.0 | 9.0 | 0.00 | 0.00 | 0.00 | 74 | 1014.6 |
| 20260505180204 | 51 | 46 | 1.0 | 9.0 | 0.00 | 0.00 | 0.00 | 73 | 1014.6 |
| 20260505180007 | 51 | 47 | 2.0 | 9.0 | 0.00 | 0.00 | 0.00 | 73 | 1014.6 |
| 20260505175803 | 52 | 53 | 3.0 | 9.0 | 0.00 | 0.00 | 0.00 | 73 | 1014.5 |
| 20260505175603 | 52 | 93 | 2.0 | 8.0 | 0.00 | 0.00 | 0.00 | 74 | 1014.6 |
| 20260505175403 | 52 | 150 | 4.0 | 8.0 | 0.00 | 0.00 | 0.00 | 74 | 1014.5 |
| 20260505175203 | 52 | 347 | 1.0 | 8.0 | 0.00 | 0.00 | 0.00 | 75 | 1014.5 |
| 20260505175004 | 52 | 90 | 2.0 | 8.0 | 0.00 | 0.00 | 0.00 | 75 | 1014.5 |
| 20260505174803 | 52 | 98 | 2.0 | 6.0 | 0.00 | 0.00 | 0.00 | 75 | 1014.6 |
| 20260505174404 | 52 | 103 | 1.0 | 6.0 | 0.00 | 0.00 | 0.00 | 76 | 1014.4 |
| 20260505173804 | 53 | 61 | 2.0 | 5.0 | 0.00 | 0.00 | 0.00 | 75 | 1014.4 |
| 20260505173604 | 53 | 352 | 2.0 | 5.0 | 0.00 | 0.00 | 0.00 | 74 | 1014.4 |
| 20260505173203 | 53 | 350 | 1.0 | 5.0 | 0.00 | 0.00 | 0.00 | 74 | 1014.4 |
| 20260505173004 | 53 | 81 | 1.0 | 5.0 | 0.00 | 0.00 | 0.00 | 74 | 1014.3 |
| 20260505172804 | 53 | 79 | 2.0 | 5.0 | 0.00 | 0.00 | 0.00 | 74 | 1014.4 |
| 20260505172605 | 53 | 12 | 3.0 | 5.0 | 0.00 | 0.00 | 0.00 | 73 | 1014.3 |
| 20260505172005 | 53 | 23 | 1.0 | 7.0 | 0.00 | 0.00 | 0.00 | 72 | 1014.4 |
| 20260505171604 | 53 | 312 | 3.0 | 8.0 | 0.00 | 0.00 | 0.00 | 72 | 1014.4 |
| 20260505171404 | 53 | 340 | 3.0 | 8.0 | 0.00 | 0.00 | 0.00 | 71 | 1014.4 |
| 20260505171204 | 53 | 328 | 2.0 | 8.0 | 0.00 | 0.00 | 0.00 | 71 | 1014.4 |
| 20260505171007 | 53 | 310 | 3.0 | 8.0 | 0.00 | 0.00 | 0.00 | 71 | 1014.5 |
| 20260505170804 | 53 | 338 | 3.0 | 8.0 | 0.00 | 0.00 | 0.00 | 71 | 1014.5 |
| 20260505170606 | 54 | 30 | 3.0 | 10.0 | 0.00 | 0.00 | 0.00 | 71 | 1014.4 |
| 20260505170403 | 54 | 352 | 3.0 | 10.0 | 0.00 | 0.00 | 0.00 | 70 | 1014.4 |
| 20260505170205 | 54 | 56 | 4.0 | 10.0 | 0.00 | 0.00 | 0.00 | 70 | 1014.4 |
| 20260505165805 | 54 | 261 | 2.0 | 9.0 | 0.00 | 0.00 | 0.00 | 69 | 1014.5 |
| 20260505165604 | 54 | 354 | 3.0 | 9.0 | 0.00 | 0.00 | 0.00 | 69 | 1014.4 |
| 20260505165204 | 55 | 341 | 3.0 | 9.0 | 0.00 | 0.00 | 0.00 | 69 | 1014.4 |
| 20260505165007 | 55 | 315 | 2.0 | 8.0 | 0.00 | 0.00 | 0.00 | 69 | 1014.4 |
| 20260505164804 | 55 | 210 | 3.0 | 8.0 | 0.00 | 0.00 | 0.00 | 68 | 1014.3 |
| 20260505164606 | 55 | 345 | 2.0 | 5.0 | 0.00 | 0.00 | 0.00 | 68 | 1014.4 |
| 20260505164404 | 55 | 342 | 2.0 | 5.0 | 0.00 | 0.00 | 0.00 | 69 | 1014.3 |
| 20260505164004 | 55 | 267 | 2.0 | 6.0 | 0.00 | 0.00 | 0.00 | 69 | 1014.4 |
| 20260505163805 | 55 | 335 | 2.0 | 6.0 | 0.00 | 0.00 | 0.00 | 69 | 1014.4 |
| 20260505163603 | 55 | 18 | 2.0 | 8.0 | 0.00 | 0.00 | 0.00 | 69 | 1014.4 |
| 20260505163406 | 55 | 274 | 3.0 | 8.0 | 0.00 | 0.00 | 0.00 | 69 | 1014.4 |
| 20260505163203 | 55 | 229 | 2.0 | 8.0 | 0.00 | 0.00 | 0.00 | 69 | 1014.3 |
| 20260505163009 | 55 | 342 | 3.0 | 8.0 | 0.00 | 0.00 | 0.00 | 68 | 1014.3 |
| 20260505162804 | 55 | 300 | 1.0 | 6.0 | 0.00 | 0.00 | 0.00 | 69 | 1014.3 |
| 20260505162605 | 55 | 357 | 2.0 | 6.0 | 0.00 | 0.00 | 0.00 | 68 | 1014.3 |
| 20260505162204 | 55 | 32 | 2.0 | 6.0 | 0.00 | 0.00 | 0.00 | 68 | 1014.3 |
| 20260505162004 | 55 | 340 | 2.0 | 6.0 | 0.00 | 0.00 | 0.00 | 68 | 1014.3 |
| 20260505161804 | 55 | 355 | 1.0 | 6.0 | 0.00 | 0.00 | 0.00 | 69 | 1014.3 |
| 20260505161604 | 55 | 299 | 1.0 | 7.0 | 0.00 | 0.00 | 0.00 | 69 | 1014.3 |
| 20260505161005 | 55 | 235 | 2.0 | 7.0 | 0.00 | 0.00 | 0.00 | 69 | 1014.3 |
| 20260505160803 | 55 | 358 | 2.0 | 7.0 | 0.00 | 0.00 | 0.00 | 70 | 1014.3 |
| 20260505160603 | 55 | 354 | 1.0 | 6.0 | 0.00 | 0.00 | 0.00 | 69 | 1014.3 |
| 20260505160403 | 55 | 284 | 2.0 | 6.0 | 0.00 | 0.00 | 0.00 | 69 | 1014.2 |
| 20260505160203 | 55 | 352 | 2.0 | 6.0 | 0.00 | 0.00 | 0.00 | 69 | 1014.3 |
| 20260505153205 | 56 | 337 | 1.0 | 5.0 | 0.00 | 0.00 | 0.00 | 63 | 1014.3 |
| 20260505153005 | 56 | 319 | 0.0 | 5.0 | 0.00 | 0.00 | 0.00 | 64 | 1014.3 |
| 20260505152805 | 56 | 342 | 2.0 | 5.0 | 0.00 | 0.00 | 0.00 | 62 | 1014.2 |
| 20260505152404 | 56 | 13 | 1.0 | 5.0 | 0.00 | 0.00 | 0.00 | 62 | 1014.3 |
| 20260505152203 | 56 | 25 | 1.0 | 5.0 | 0.00 | 0.00 | 0.00 | 61 | 1014.3 |
| 20260505152006 | 57 | 11 | 3.0 | 5.0 | 0.00 | 0.00 | 0.00 | 61 | 1014.3 |
| 20260505151803 | 57 | 342 | 2.0 | 5.0 | 0.00 | 0.00 | 0.00 | 63 | 1014.3 |
| 20260505151605 | 57 | 25 | 1.0 | 3.0 | 0.00 | 0.00 | 0.00 | 64 | 1014.3 |
| 20260505151205 | 57 | 276 | 1.0 | 5.0 | 0.00 | 0.00 | 0.00 | 64 | 1014.3 |
| 20260505151004 | 56 | 25 | 1.0 | 5.0 | 0.00 | 0.00 | 0.00 | 64 | 1014.2 |
| 20260505150604 | 56 | 70 | 1.0 | 6.0 | 0.00 | 0.00 | 0.00 | 63 | 1014.3 |
| 20260505150405 | 56 | 266 | 2.0 | 6.0 | 0.00 | 0.00 | 0.00 | 64 | 1014.3 |
| 20260505150204 | 56 | 325 | 1.0 | 6.0 | 0.00 | 0.00 | 0.00 | 65 | 1014.3 |
| 20260505140403 | 54 | 345 | 2.0 | 7.0 | 0.00 | 0.00 | 0.00 | 67 | 1014.5 |
| 20260505140204 | 54 | 1 | 2.0 | 7.0 | 0.00 | 0.00 | 0.00 | 67 | 1014.4 |
| 20260505125003 | 53 | 310 | 1.0 | 5.0 | 0.00 | 0.00 | 0.00 | 73 | 1014.8 |
| 20260505124603 | 52 | 332 | 1.0 | 5.0 | 0.00 | 0.00 | 0.00 | 73 | 1014.7 |
| 20260505124403 | 52 | 309 | 3.0 | 7.0 | 0.00 | 0.00 | 0.00 | 73 | 1014.7 |
| 20260505124202 | 52 | 82 | 3.0 | 7.0 | 0.00 | 0.00 | 0.00 | 73 | 1014.7 |
| 20260505124003 | 52 | 20 | 1.0 | 7.0 | 0.00 | 0.00 | 0.00 | 74 | 1014.8 |
| 20260505123602 | 52 | 7 | 3.0 | 9.0 | 0.00 | 0.00 | 0.00 | 74 | 1014.8 |
| 20260505123403 | 52 | 289 | 2.0 | 9.0 | 0.00 | 0.00 | 0.00 | 74 | 1014.7 |
| 20260505123202 | 52 | 334 | 4.0 | 9.0 | 0.00 | 0.00 | 0.00 | 73 | 1014.7 |
| 20260505123004 | 52 | 332 | 3.0 | 9.0 | 0.00 | 0.00 | 0.00 | 73 | 1014.8 |
| 20260505122804 | 52 | 344 | 3.0 | 7.0 | 0.00 | 0.00 | 0.00 | 74 | 1014.8 |
| 20260505122604 | 52 | 319 | 1.0 | 6.0 | 0.00 | 0.00 | 0.00 | 74 | 1014.8 |
| 20260505122402 | 52 | 154 | 1.0 | 6.0 | 0.00 | 0.00 | 0.00 | 75 | 1014.7 |
| 20260505122204 | 52 | 342 | 1.0 | 6.0 | 0.00 | 0.00 | 0.00 | 75 | 1014.8 |
| 20260505122003 | 52 | 23 | 2.0 | 6.0 | 0.00 | 0.00 | 0.00 | 75 | 1014.8 |
| 20260505121804 | 52 | 288 | 3.0 | 6.0 | 0.00 | 0.00 | 0.00 | 74 | 1014.8 |
| 20260505121602 | 52 | 1 | 2.0 | 9.0 | 0.00 | 0.00 | 0.00 | 74 | 1014.8 |
| 20260505121404 | 52 | 345 | 2.0 | 9.0 | 0.00 | 0.00 | 0.00 | 74 | 1014.8 |
| 20260505121202 | 52 | 345 | 2.0 | 9.0 | 0.00 | 0.00 | 0.00 | 73 | 1014.9 |
| 20260505121005 | 52 | 352 | 3.0 | 9.0 | 0.00 | 0.00 | 0.00 | 73 | 1014.8 |
| 20260505120802 | 53 | 22 | 4.0 | 9.0 | 0.00 | 0.00 | 0.00 | 73 | 1014.8 |
| 20260505120604 | 53 | 343 | 2.0 | 7.0 | 0.00 | 0.00 | 0.00 | 73 | 1014.9 |
| 20260505120204 | 53 | 17 | 3.0 | 7.0 | 0.00 | 0.00 | 0.00 | 73 | 1014.9 |
| 20260505120008 | 53 | 27 | 4.0 | 7.0 | 0.00 | 0.00 | 0.00 | 72 | 1014.9 |
| 20260505115804 | 53 | 305 | 3.0 | 7.0 | 0.00 | 0.00 | 0.00 | 74 | 1014.9 |
| 20260505115603 | 53 | 333 | 1.0 | 7.0 | 0.00 | 0.00 | 0.00 | 74 | 1014.9 |
| 20260505115404 | 53 | 6 | 3.0 | 7.0 | 0.00 | 0.00 | 0.00 | 73 | 1014.8 |
| 20260505115202 | 53 | 56 | 3.0 | 7.0 | 0.00 | 0.00 | 0.00 | 72 | 1014.9 |
| 20260505115005 | 53 | 1 | 3.0 | 7.0 | 0.00 | 0.00 | 0.00 | 72 | 1014.9 |
| 20260505114604 | 53 | 248 | 2.0 | 5.0 | 0.00 | 0.00 | 0.00 | 71 | 1014.7 |
| 20260505114402 | 53 | 348 | 2.0 | 5.0 | 0.00 | 0.00 | 0.00 | 71 | 1014.8 |
| 20260505114204 | 53 | 358 | 3.0 | 5.0 | 0.00 | 0.00 | 0.00 | 70 | 1014.8 |
| 20260505114003 | 53 | 349 | 2.0 | 5.0 | 0.00 | 0.00 | 0.00 | 71 | 1014.9 |
| 20260505113804 | 53 | 305 | 1.0 | 5.0 | 0.00 | 0.00 | 0.00 | 71 | 1014.9 |
| 20260505113602 | 53 | 354 | 2.0 | 5.0 | 0.00 | 0.00 | 0.00 | 71 | 1014.9 |
| 20260505113404 | 53 | 304 | 2.0 | 5.0 | 0.00 | 0.00 | 0.00 | 71 | 1014.9 |
| 20260505113202 | 53 | 345 | 2.0 | 6.0 | 0.00 | 0.00 | 0.00 | 72 | 1015.0 |
| 20260505113006 | 52 | 88 | 1.0 | 9.0 | 0.00 | 0.00 | 0.00 | 72 | 1015.0 |
| 20260505112802 | 52 | 316 | 1.0 | 9.0 | 0.00 | 0.00 | 0.00 | 73 | 1015.0 |
| 20260505112604 | 52 | 360 | 3.0 | 9.0 | 0.00 | 0.00 | 0.00 | 71 | 1015.0 |
| 20260505112402 | 52 | 26 | 5.0 | 9.0 | 0.00 | 0.00 | 0.00 | 71 | 1015.1 |
| 20260505112203 | 52 | 8 | 2.0 | 7.0 | 0.00 | 0.00 | 0.00 | 71 | 1015.0 |
| 20260505112003 | 52 | 331 | 3.0 | 7.0 | 0.00 | 0.00 | 0.00 | 72 | 1015.1 |
| 20260505111803 | 52 | 37 | 3.0 | 7.0 | 0.00 | 0.00 | 0.00 | 72 | 1014.9 |
| 20260505111602 | 52 | 12 | 1.0 | 4.0 | 0.00 | 0.00 | 0.00 | 73 | 1014.9 |
| 20260505111405 | 52 | 356 | 1.0 | 4.0 | 0.00 | 0.00 | 0.00 | 75 | 1014.9 |
| 20260505111202 | 51 | 7 | 0.0 | 4.0 | 0.00 | 0.00 | 0.00 | 75 | 1014.9 |
| 20260505110802 | 51 | 323 | 1.0 | 4.0 | 0.00 | 0.00 | 0.00 | 77 | 1015.0 |
| 20260505110604 | 51 | 25 | 0.0 | 4.0 | 0.00 | 0.00 | 0.00 | 77 | 1015.0 |
| 20260505110402 | 51 | 200 | 1.0 | 4.0 | 0.00 | 0.00 | 0.00 | 77 | 1015.0 |
| 20260505110202 | 51 | 326 | 1.0 | 4.0 | 0.00 | 0.00 | 0.00 | 77 | 1015.0 |
| 20260505102204 | 50 | 252 | 2.0 | 5.0 | 0.00 | 0.00 | 0.00 | 77 | 1015.2 |
| 20260505102011 | 50 | 310 | 1.0 | 6.0 | 0.00 | 0.00 | 0.00 | 77 | 1015.3 |
| 20260505101804 | 50 | 228 | 1.0 | 6.0 | 0.00 | 0.00 | 0.00 | 77 | 1015.3 |
| 20260505101602 | 51 | 233 | 2.0 | 6.0 | 0.00 | 0.00 | 0.00 | 77 | 1015.3 |
| 20260505101202 | 51 | 11 | 2.0 | 6.0 | 0.00 | 0.00 | 0.00 | 75 | 1015.3 |
| 20260505101005 | 51 | 330 | 3.0 | 6.0 | 0.00 | 0.00 | 0.00 | 74 | 1015.2 |
| 20260505100802 | 51 | 311 | 3.0 | 6.0 | 0.00 | 0.00 | 0.00 | 74 | 1015.3 |
| 20260505100603 | 51 | 314 | 2.0 | 5.0 | 0.00 | 0.00 | 0.00 | 74 | 1015.2 |
| 20260505100402 | 51 | 271 | 2.0 | 5.0 | 0.00 | 0.00 | 0.00 | 74 | 1015.3 |
| 20260505100204 | 51 | 328 | 2.0 | 5.0 | 0.00 | 0.00 | 0.00 | 73 | 1015.2 |
| 20260505100005 | 51 | 274 | 1.0 | 6.0 | 0.00 | 0.00 | 0.00 | 73 | 1015.3 |
| 20260505095803 | 51 | 335 | 1.0 | 6.0 | 0.00 | 0.00 | 0.00 | 72 | 1015.2 |
| 20260505095603 | 51 | 308 | 3.0 | 6.0 | 0.00 | 0.00 | 0.00 | 71 | 1015.2 |
| 20260505095403 | 51 | 347 | 3.0 | 6.0 | 0.00 | 0.00 | 0.00 | 71 | 1015.3 |
| 20260505095202 | 51 | 260 | 3.0 | 7.0 | 0.00 | 0.00 | 0.00 | 71 | 1015.2 |
| 20260505095003 | 52 | 29 | 2.0 | 7.0 | 0.00 | 0.00 | 0.00 | 71 | 1015.1 |
| 20260505094802 | 52 | 333 | 2.0 | 7.0 | 0.00 | 0.00 | 0.00 | 70 | 1015.3 |
| 20260505094402 | 52 | 309 | 3.0 | 7.0 | 0.00 | 0.00 | 0.00 | 70 | 1015.3 |
| 20260505094202 | 52 | 353 | 2.0 | 6.0 | 0.00 | 0.00 | 0.00 | 70 | 1015.3 |
| 20260505094003 | 52 | 327 | 2.0 | 6.0 | 0.00 | 0.00 | 0.00 | 71 | 1015.2 |
| 20260505093802 | 52 | 104 | 1.0 | 5.0 | 0.00 | 0.00 | 0.00 | 71 | 1015.2 |
| 20260505093602 | 52 | 283 | 1.0 | 5.0 | 0.00 | 0.00 | 0.00 | 71 | 1015.3 |
| 20260505093402 | 52 | 210 | 2.0 | 5.0 | 0.00 | 0.00 | 0.00 | 71 | 1015.2 |
| 20260505093003 | 52 | 158 | 1.0 | 6.0 | 0.00 | 0.00 | 0.00 | 71 | 1015.2 |
| 20260505092602 | 52 | 68 | 1.0 | 6.0 | 0.00 | 0.00 | 0.00 | 70 | 1015.2 |
| 20260505092402 | 52 | 289 | 3.0 | 6.0 | 0.00 | 0.00 | 0.00 | 70 | 1015.2 |
| 20260505092202 | 52 | 319 | 2.0 | 6.0 | 0.00 | 0.00 | 0.00 | 69 | 1015.2 |
| 20260505092003 | 52 | 218 | 2.0 | 6.0 | 0.00 | 0.00 | 0.00 | 69 | 1015.3 |
| 20260505091802 | 52 | 21 | 3.0 | 6.0 | 0.00 | 0.00 | 0.00 | 69 | 1015.3 |
| 20260505091602 | 53 | 34 | 1.0 | 4.0 | 0.00 | 0.00 | 0.00 | 69 | 1015.3 |
| 20260505091402 | 52 | 292 | 1.0 | 8.0 | 0.00 | 0.00 | 0.00 | 71 | 1015.2 |
| 20260505091202 | 52 | 248 | 2.0 | 8.0 | 0.00 | 0.00 | 0.00 | 71 | 1015.2 |
| 20260505091003 | 52 | 290 | 1.0 | 8.0 | 0.00 | 0.00 | 0.00 | 72 | 1015.3 |
| 20260505090802 | 51 | 163 | 2.0 | 8.0 | 0.00 | 0.00 | 0.00 | 71 | 1015.2 |
| 20260505090602 | 51 | 334 | 2.0 | 8.0 | 0.00 | 0.00 | 0.00 | 73 | 1015.3 |
| 20260505090402 | 51 | 303 | 2.0 | 7.0 | 0.00 | 0.00 | 0.00 | 72 | 1015.2 |
| 20260505090202 | 51 | 252 | 3.0 | 6.0 | 0.00 | 0.00 | 0.00 | 73 | 1015.2 |
| 20260505090008 | 51 | 346 | 1.0 | 5.0 | 0.00 | 0.00 | 0.00 | 76 | 1015.3 |
| 20260505085604 | 50 | 323 | 2.0 | 5.0 | 0.00 | 0.00 | 0.00 | 75 | 1015.3 |
| 20260505085402 | 50 | 345 | 1.0 | 5.0 | 0.00 | 0.00 | 0.00 | 76 | 1015.2 |
| 20260505085204 | 50 | 319 | 3.0 | 5.0 | 0.00 | 0.00 | 0.00 | 76 | 1015.3 |
| 20260505085004 | 50 | 32 | 2.0 | 5.0 | 0.00 | 0.00 | 0.00 | 77 | 1015.3 |
| 20260505084803 | 50 | 276 | 1.0 | 5.0 | 0.00 | 0.00 | 0.00 | 78 | 1015.3 |
| 20260505084603 | 50 | 320 | 2.0 | 5.0 | 0.00 | 0.00 | 0.00 | 78 | 1015.3 |
| 20260505084404 | 50 | 308 | 2.0 | 5.0 | 0.00 | 0.00 | 0.00 | 78 | 1015.4 |
| 20260505084202 | 50 | 229 | 2.0 | 5.0 | 0.00 | 0.00 | 0.00 | 79 | 1015.4 |
| 20260505084005 | 50 | 17 | 1.0 | 5.0 | 0.00 | 0.00 | 0.00 | 80 | 1015.4 |
| 20260505083802 | 50 | 7 | 1.0 | 7.0 | 0.00 | 0.00 | 0.00 | 80 | 1015.5 |
| 20260505083604 | 50 | 354 | 2.0 | 7.0 | 0.00 | 0.00 | 0.00 | 80 | 1015.5 |
| 20260505083203 | 50 | 27 | 3.0 | 7.0 | 0.00 | 0.00 | 0.00 | 80 | 1015.4 |
| 20260505083003 | 50 | 309 | 1.0 | 5.0 | 0.00 | 0.00 | 0.00 | 80 | 1015.4 |
| 20260505082602 | 50 | 328 | 2.0 | 6.0 | 0.00 | 0.00 | 0.00 | 80 | 1015.4 |
| 20260505082202 | 50 | 349 | 1.0 | 6.0 | 0.00 | 0.00 | 0.00 | 82 | 1015.4 |
| 20260505082005 | 49 | 288 | 2.0 | 7.0 | 0.00 | 0.00 | 0.00 | 83 | 1015.4 |
| 20260505081802 | 49 | 16 | 2.0 | 7.0 | 0.00 | 0.00 | 0.00 | 84 | 1015.4 |
| 20260505081604 | 49 | 338 | 1.0 | 7.0 | 0.00 | 0.00 | 0.00 | 85 | 1015.4 |
| 20260505081402 | 49 | 307 | 2.0 | 7.0 | 0.00 | 0.00 | 0.00 | 85 | 1015.4 |
| 20260505081204 | 49 | 343 | 2.0 | 7.0 | 0.00 | 0.00 | 0.00 | 87 | 1015.4 |
| 20260505081003 | 49 | 214 | 0.0 | 3.0 | 0.00 | 0.00 | 0.00 | 86 | 1015.4 |
| 20260505080804 | 49 | 288 | 1.0 | 3.0 | 0.00 | 0.00 | 0.00 | 86 | 1015.4 |
| 20260505080602 | 49 | 196 | 0.0 | 6.0 | 0.00 | 0.00 | 0.00 | 86 | 1015.4 |
| 20260505080403 | 49 | 23 | 0.0 | 6.0 | 0.00 | 0.00 | 0.00 | 86 | 1015.5 |
| 20260505075602 | 49 | 307 | 1.0 | 6.0 | 0.00 | 0.00 | 0.00 | 86 | 1015.4 |
| 20260505075403 | 49 | 316 | 2.0 | 6.0 | 0.00 | 0.00 | 0.00 | 86 | 1015.4 |
| 20260505075202 | 49 | 30 | 3.0 | 6.0 | 0.00 | 0.00 | 0.00 | 86 | 1015.4 |
| 20260505075003 | 49 | 333 | 1.0 | 3.0 | 0.00 | 0.00 | 0.00 | 86 | 1015.4 |
| 20260505074802 | 49 | 20 | 1.0 | 3.0 | 0.00 | 0.00 | 0.00 | 87 | 1015.3 |
| 20260505074202 | 48 | 347 | 0.0 | 3.0 | 0.00 | 0.00 | 0.00 | 88 | 1015.4 |
| 20260505074003 | 48 | 320 | 1.0 | 3.0 | 0.00 | 0.00 | 0.00 | 88 | 1015.4 |
| 20260505073802 | 48 | 323 | 1.0 | 2.0 | 0.00 | 0.00 | 0.00 | 89 | 1015.4 |
| 20260505073602 | 48 | 352 | 0.0 | 2.0 | 0.00 | 0.00 | 0.00 | 90 | 1015.3 |
| 20260505073402 | 48 | 211 | 0.0 | 0.0 | 0.00 | 0.00 | 0.00 | 90 | 1015.3 |
| 20260505073202 | 47 | 354 | 0.0 | 0.0 | 0.00 | 0.00 | 0.00 | 91 | 1015.3 |
| 20260505073002 | 47 | 222 | 0.0 | 0.0 | 0.00 | 0.00 | 0.00 | 91 | 1015.3 |
| 20260505072802 | 47 | 222 | 0.0 | 0.0 | 0.00 | 0.00 | 0.00 | 91 | 1015.3 |
| 20260505072602 | 47 | 222 | 0.0 | 0.0 | 0.00 | 0.00 | 0.00 | 91 | 1015.3 |
| 20260505072402 | 47 | 222 | 0.0 | 0.0 | 0.00 | 0.00 | 0.00 | 91 | 1015.4 |
| 20260505072003 | 47 | 222 | 0.0 | 0.0 | 0.00 | 0.00 | 0.00 | 91 | 1015.3 |
| 20260505071802 | 47 | 222 | 0.0 | 0.0 | 0.00 | 0.00 | 0.00 | 92 | 1015.3 |
| 20260505071602 | 47 | 222 | 0.0 | 0.0 | 0.00 | 0.00 | 0.00 | 92 | 1015.3 |
| 20260505071003 | 47 | 231 | 0.0 | 0.0 | 0.00 | 0.00 | 0.00 | 92 | 1015.4 |
| 20260505070802 | 47 | 247 | 0.0 | 0.0 | 0.00 | 0.00 | 0.00 | 92 | 1015.4 |
| 20260505070602 | 47 | 247 | 0.0 | 0.0 | 0.00 | 0.00 | 0.00 | 92 | 1015.5 |
| 20260505070404 | 46 | 247 | 0.0 | 0.0 | 0.00 | 0.00 | 0.00 | 92 | 1015.4 |
| 20260505065802 | 46 | 247 | 0.0 | 0.0 | 0.00 | 0.00 | 0.00 | 93 | 1015.5 |
| 20260505065402 | 46 | 247 | 0.0 | 0.0 | 0.00 | 0.00 | 0.00 | 93 | 1015.5 |
| 20260505065203 | 46 | 247 | 0.0 | 0.0 | 0.00 | 0.00 | 0.00 | 93 | 1015.5 |
| 20260505065003 | 46 | 247 | 0.0 | 0.0 | 0.00 | 0.00 | 0.00 | 93 | 1015.4 |
| 20260505064804 | 46 | 247 | 0.0 | 0.0 | 0.00 | 0.00 | 0.00 | 93 | 1015.5 |
| 20260505064602 | 46 | 247 | 0.0 | 0.0 | 0.00 | 0.00 | 0.00 | 93 | 1015.5 |
| 20260505064403 | 46 | 247 | 0.0 | 0.0 | 0.00 | 0.00 | 0.00 | 93 | 1015.5 |
| 20260505064201 | 46 | 248 | 0.0 | 0.0 | 0.00 | 0.00 | 0.00 | 94 | 1015.6 |
| 20260505064004 | 46 | 248 | 0.0 | 0.0 | 0.00 | 0.00 | 0.00 | 94 | 1015.5 |
| 20260505063802 | 46 | 248 | 0.0 | 0.0 | 0.00 | 0.00 | 0.00 | 94 | 1015.5 |
| 20260505063604 | 46 | 248 | 0.0 | 0.0 | 0.00 | 0.00 | 0.00 | 94 | 1015.5 |
| 20260505063402 | 45 | 248 | 0.0 | 0.0 | 0.00 | 0.00 | 0.00 | 94 | 1015.5 |
| 20260505063204 | 45 | 248 | 0.0 | 0.0 | 0.00 | 0.00 | 0.00 | 94 | 1015.5 |
| 20260505063003 | 45 | 248 | 0.0 | 0.0 | 0.00 | 0.00 | 0.00 | 94 | 1015.6 |
| 20260505062802 | 45 | 248 | 0.0 | 0.0 | 0.00 | 0.00 | 0.00 | 94 | 1015.6 |
| 20260505062602 | 45 | 248 | 0.0 | 0.0 | 0.00 | 0.00 | 0.00 | 94 | 1015.6 |
| 20260505062402 | 45 | 248 | 0.0 | 0.0 | 0.00 | 0.00 | 0.00 | 95 | 1015.6 |
| 20260505061602 | 45 | 248 | 0.0 | 0.0 | 0.00 | 0.00 | 0.00 | 95 | 1015.6 |
| 20260505061402 | 44 | 248 | 0.0 | 0.0 | 0.00 | 0.00 | 0.00 | 95 | 1015.6 |
| 20260505061202 | 44 | 248 | 0.0 | 0.0 | 0.00 | 0.00 | 0.00 | 95 | 1015.6 |
| 20260505061003 | 44 | 246 | 0.0 | 0.0 | 0.00 | 0.00 | 0.00 | 95 | 1015.6 |
| 20260505060802 | 44 | 3 | 0.0 | 1.0 | 0.00 | 0.00 | 0.00 | 95 | 1015.6 |
| 20260505060602 | 44 | 4 | 0.0 | 1.0 | 0.00 | 0.00 | 0.00 | 95 | 1015.5 |
| 20260505060405 | 44 | 4 | 0.0 | 1.0 | 0.00 | 0.00 | 0.00 | 95 | 1015.5 |
| 20260505060202 | 44 | 344 | 0.0 | 1.0 | 0.00 | 0.00 | 0.00 | 95 | 1015.6 |
| 20260505060006 | 44 | 1 | 1.0 | 1.0 | 0.00 | 0.00 | 0.00 | 95 | 1015.5 |
| 20260505055602 | 44 | 8 | 0.0 | 0.0 | 0.00 | 0.00 | 0.00 | 95 | 1015.5 |
| 20260505055403 | 44 | 8 | 0.0 | 0.0 | 0.00 | 0.00 | 0.00 | 95 | 1015.4 |
| 20260505055203 | 44 | 8 | 0.0 | 0.0 | 0.00 | 0.00 | 0.00 | 96 | 1015.5 |
| 20260505055005 | 44 | 8 | 0.0 | 0.0 | 0.00 | 0.00 | 0.00 | 96 | 1015.5 |
| 20260505054802 | 44 | 8 | 0.0 | 0.0 | 0.00 | 0.00 | 0.00 | 96 | 1015.4 |
| 20260505054603 | 43 | 8 | 0.0 | 0.0 | 0.00 | 0.00 | 0.00 | 96 | 1015.4 |
| 20260505054402 | 43 | 8 | 0.0 | 1.0 | 0.00 | 0.00 | 0.00 | 96 | 1015.3 |
| 20260505054204 | 43 | 8 | 0.0 | 1.0 | 0.00 | 0.00 | 0.00 | 96 | 1015.4 |
| 20260505054003 | 42 | 8 | 0.0 | 2.0 | 0.00 | 0.00 | 0.00 | 96 | 1015.4 |
| 20260505053804 | 42 | 8 | 0.0 | 2.0 | 0.00 | 0.00 | 0.00 | 96 | 1015.3 |
| 20260505053602 | 41 | 8 | 0.0 | 2.0 | 0.00 | 0.00 | 0.00 | 96 | 1015.3 |
| 20260505053404 | 41 | 8 | 0.0 | 3.0 | 0.00 | 0.00 | 0.00 | 96 | 1015.5 |
| 20260505053202 | 41 | 8 | 1.0 | 5.0 | 0.00 | 0.00 | 0.00 | 96 | 1015.4 |
| 20260505052802 | 41 | 298 | 0.0 | 5.0 | 0.00 | 0.00 | 0.00 | 96 | 1015.5 |
| 20260505052604 | 40 | 278 | 1.0 | 5.0 | 0.00 | 0.00 | 0.00 | 96 | 1015.6 |
| 20260505052402 | 40 | 256 | 2.0 | 5.0 | 0.00 | 0.00 | 0.00 | 96 | 1015.6 |
| 20260505052204 | 40 | 292 | 0.0 | 0.0 | 0.00 | 0.00 | 0.00 | 96 | 1015.4 |
| 20260505051804 | 40 | 342 | 0.0 | 0.0 | 0.00 | 0.00 | 0.00 | 96 | 1015.4 |
| 20260505051602 | 40 | 342 | 0.0 | 0.0 | 0.00 | 0.00 | 0.00 | 96 | 1015.4 |
| 20260505051203 | 39 | 342 | 0.0 | 0.0 | 0.00 | 0.00 | 0.00 | 96 | 1015.2 |
| 20260505051006 | 39 | 342 | 0.0 | 0.0 | 0.00 | 0.00 | 0.00 | 96 | 1015.2 |
| 20260505050802 | 39 | 342 | 0.0 | 0.0 | 0.00 | 0.00 | 0.00 | 96 | 1015.3 |
| 20260505050604 | 39 | 342 | 0.0 | 0.0 | 0.00 | 0.00 | 0.00 | 95 | 1015.2 |
| 20260505050404 | 39 | 342 | 0.0 | 0.0 | 0.00 | 0.00 | 0.00 | 95 | 1015.3 |
| 20260505050202 | 39 | 342 | 0.0 | 0.0 | 0.00 | 0.00 | 0.00 | 95 | 1015.2 |
| 20260505041602 | 38 | 342 | 0.0 | 0.0 | 0.00 | 0.00 | 0.00 | 95 | 1015.0 |
| 20260505041402 | 38 | 342 | 0.0 | 0.0 | 0.00 | 0.00 | 0.00 | 95 | 1015.0 |
| 20260505041202 | 38 | 342 | 0.0 | 0.0 | 0.00 | 0.00 | 0.00 | 95 | 1015.0 |
| 20260505040802 | 38 | 342 | 0.0 | 0.0 | 0.00 | 0.00 | 0.00 | 95 | 1015.0 |
| 20260505040402 | 39 | 342 | 0.0 | 0.0 | 0.00 | 0.00 | 0.00 | 95 | 1014.9 |
| 20260505040205 | 39 | 342 | 0.0 | 0.0 | 0.00 | 0.00 | 0.00 | 95 | 1014.9 |
| 20260505035802 | 39 | 342 | 0.0 | 0.0 | 0.00 | 0.00 | 0.00 | 94 | 1014.9 |
| 20260505035603 | 39 | 342 | 0.0 | 0.0 | 0.00 | 0.00 | 0.00 | 94 | 1015.0 |
| 20260505035402 | 39 | 342 | 0.0 | 0.0 | 0.00 | 0.00 | 0.00 | 95 | 1015.0 |
| 20260505035203 | 39 | 342 | 0.0 | 0.0 | 0.00 | 0.00 | 0.00 | 95 | 1015.0 |
| 20260505035003 | 39 | 342 | 0.0 | 0.0 | 0.00 | 0.00 | 0.00 | 95 | 1015.2 |
| 20260505034802 | 39 | 342 | 0.0 | 0.0 | 0.00 | 0.00 | 0.00 | 95 | 1015.1 |
| 20260505034603 | 39 | 342 | 0.0 | 0.0 | 0.00 | 0.00 | 0.00 | 95 | 1015.0 |
| 20260505034203 | 39 | 342 | 0.0 | 0.0 | 0.00 | 0.00 | 0.00 | 95 | 1015.1 |
| 20260505034003 | 39 | 342 | 0.0 | 0.0 | 0.00 | 0.00 | 0.00 | 95 | 1015.0 |
| 20260505033802 | 39 | 342 | 0.0 | 0.0 | 0.00 | 0.00 | 0.00 | 95 | 1015.0 |
| 20260505033402 | 39 | 342 | 0.0 | 0.0 | 0.00 | 0.00 | 0.00 | 95 | 1015.0 |
| 20260505033204 | 39 | 342 | 0.0 | 0.0 | 0.00 | 0.00 | 0.00 | 95 | 1015.1 |
| 20260505033003 | 39 | 342 | 0.0 | 0.0 | 0.00 | 0.00 | 0.00 | 95 | 1015.0 |
| 20260505032804 | 39 | 342 | 0.0 | 0.0 | 0.00 | 0.00 | 0.00 | 95 | 1014.9 |
| 20260505032603 | 39 | 342 | 0.0 | 0.0 | 0.00 | 0.00 | 0.00 | 95 | 1015.1 |
| 20260505032404 | 39 | 342 | 0.0 | 0.0 | 0.00 | 0.00 | 0.00 | 95 | 1015.1 |
| 20260505032202 | 39 | 342 | 0.0 | 0.0 | 0.00 | 0.00 | 0.00 | 95 | 1015.0 |
| 20260505032005 | 39 | 342 | 0.0 | 0.0 | 0.00 | 0.00 | 0.00 | 95 | 1015.1 |
| 20260505031604 | 39 | 342 | 0.0 | 0.0 | 0.00 | 0.00 | 0.00 | 95 | 1015.2 |
| 20260505031402 | 39 | 342 | 0.0 | 0.0 | 0.00 | 0.00 | 0.00 | 95 | 1015.2 |
| 20260505031204 | 39 | 342 | 0.0 | 0.0 | 0.00 | 0.00 | 0.00 | 95 | 1015.1 |
| 20260505031005 | 40 | 342 | 0.0 | 0.0 | 0.00 | 0.00 | 0.00 | 95 | 1015.1 |
| 20260505030804 | 40 | 342 | 0.0 | 0.0 | 0.00 | 0.00 | 0.00 | 95 | 1015.2 |
| 20260505030602 | 40 | 342 | 0.0 | 0.0 | 0.00 | 0.00 | 0.00 | 95 | 1015.2 |
| 20260505030405 | 40 | 342 | 0.0 | 0.0 | 0.00 | 0.00 | 0.00 | 95 | 1015.2 |
| 20260505030004 | 40 | 342 | 0.0 | 0.0 | 0.00 | 0.00 | 0.00 | 95 | 1015.1 |
| 20260505025804 | 40 | 342 | 0.0 | 0.0 | 0.00 | 0.00 | 0.00 | 95 | 1015.2 |
| 20260505025601 | 40 | 342 | 0.0 | 0.0 | 0.00 | 0.00 | 0.00 | 95 | 1015.3 |
| 20260505025403 | 40 | 342 | 0.0 | 0.0 | 0.00 | 0.00 | 0.00 | 95 | 1015.3 |
| 20260505025201 | 40 | 342 | 0.0 | 0.0 | 0.00 | 0.00 | 0.00 | 95 | 1015.2 |
| 20260505024801 | 40 | 342 | 0.0 | 0.0 | 0.00 | 0.00 | 0.00 | 94 | 1015.3 |
| 20260505024202 | 40 | 342 | 0.0 | 0.0 | 0.00 | 0.00 | 0.00 | 94 | 1015.4 |
| 20260505024002 | 40 | 342 | 0.0 | 0.0 | 0.00 | 0.00 | 0.00 | 94 | 1015.4 |
| 20260505023803 | 40 | 342 | 0.0 | 0.0 | 0.00 | 0.00 | 0.00 | 94 | 1015.3 |
| 20260505023601 | 40 | 342 | 0.0 | 0.0 | 0.00 | 0.00 | 0.00 | 94 | 1015.2 |
| 20260505023402 | 40 | 342 | 0.0 | 0.0 | 0.00 | 0.00 | 0.00 | 94 | 1015.3 |
| 20260505023201 | 40 | 342 | 0.0 | 0.0 | 0.00 | 0.00 | 0.00 | 94 | 1015.4 |
| 20260505023004 | 40 | 342 | 0.0 | 0.0 | 0.00 | 0.00 | 0.00 | 94 | 1015.4 |
| 20260505022801 | 40 | 342 | 0.0 | 0.0 | 0.00 | 0.00 | 0.00 | 94 | 1015.4 |
| 20260505022602 | 40 | 342 | 0.0 | 0.0 | 0.00 | 0.00 | 0.00 | 94 | 1015.4 |
| 20260505022401 | 40 | 342 | 0.0 | 0.0 | 0.00 | 0.00 | 0.00 | 94 | 1015.3 |
| 20260505022203 | 40 | 342 | 0.0 | 0.0 | 0.00 | 0.00 | 0.00 | 94 | 1015.3 |
| 20260505022005 | 40 | 342 | 0.0 | 0.0 | 0.00 | 0.00 | 0.00 | 94 | 1015.3 |
| 20260505021601 | 40 | 342 | 0.0 | 0.0 | 0.00 | 0.00 | 0.00 | 94 | 1015.3 |
| 20260505021403 | 40 | 342 | 0.0 | 0.0 | 0.00 | 0.00 | 0.00 | 94 | 1015.4 |
| 20260505021201 | 40 | 342 | 0.0 | 0.0 | 0.00 | 0.00 | 0.00 | 94 | 1015.4 |
| 20260505021008 | 40 | 342 | 0.0 | 0.0 | 0.00 | 0.00 | 0.00 | 94 | 1015.4 |
| 20260505020801 | 40 | 342 | 0.0 | 0.0 | 0.00 | 0.00 | 0.00 | 93 | 1015.4 |
| 20260505020603 | 40 | 342 | 0.0 | 0.0 | 0.00 | 0.00 | 0.00 | 93 | 1015.3 |
| 20260505020403 | 40 | 342 | 0.0 | 0.0 | 0.00 | 0.00 | 0.00 | 93 | 1015.3 |
| 20260505020201 | 40 | 342 | 0.0 | 0.0 | 0.00 | 0.00 | 0.00 | 93 | 1015.3 |
| 20260505015801 | 40 | 342 | 0.0 | 0.0 | 0.00 | 0.00 | 0.00 | 93 | 1015.3 |
| 20260505015401 | 41 | 342 | 0.0 | 0.0 | 0.00 | 0.00 | 0.00 | 93 | 1015.3 |
| 20260505015201 | 41 | 342 | 0.0 | 0.0 | 0.00 | 0.00 | 0.00 | 93 | 1015.4 |
| 20260505015005 | 41 | 342 | 0.0 | 0.0 | 0.00 | 0.00 | 0.00 | 93 | 1015.4 |
| 20260505014801 | 41 | 342 | 0.0 | 0.0 | 0.00 | 0.00 | 0.00 | 93 | 1015.5 |
| 20260505014601 | 41 | 342 | 0.0 | 0.0 | 0.00 | 0.00 | 0.00 | 93 | 1015.5 |
| 20260505014401 | 41 | 342 | 0.0 | 0.0 | 0.00 | 0.00 | 0.00 | 93 | 1015.5 |
| 20260505014201 | 41 | 342 | 0.0 | 0.0 | 0.00 | 0.00 | 0.00 | 93 | 1015.6 |
| 20260505014005 | 41 | 342 | 0.0 | 0.0 | 0.00 | 0.00 | 0.00 | 93 | 1015.5 |
| 20260505013803 | 41 | 342 | 0.0 | 0.0 | 0.00 | 0.00 | 0.00 | 93 | 1015.5 |
| 20260505013601 | 41 | 342 | 0.0 | 0.0 | 0.00 | 0.00 | 0.00 | 93 | 1015.5 |
| 20260505013403 | 41 | 342 | 0.0 | 0.0 | 0.00 | 0.00 | 0.00 | 93 | 1015.6 |
| 20260505013201 | 41 | 342 | 0.0 | 0.0 | 0.00 | 0.00 | 0.00 | 93 | 1015.7 |
| 20260505012801 | 41 | 342 | 0.0 | 0.0 | 0.00 | 0.00 | 0.00 | 93 | 1015.7 |
| 20260505012204 | 41 | 342 | 0.0 | 0.0 | 0.00 | 0.00 | 0.00 | 93 | 1015.7 |
| 20260505012005 | 41 | 342 | 0.0 | 0.0 | 0.00 | 0.00 | 0.00 | 93 | 1015.7 |
| 20260505011802 | 41 | 342 | 0.0 | 0.0 | 0.00 | 0.00 | 0.00 | 92 | 1015.7 |
| 20260505011601 | 41 | 342 | 0.0 | 0.0 | 0.00 | 0.00 | 0.00 | 92 | 1015.8 |
| 20260505011403 | 41 | 342 | 0.0 | 0.0 | 0.00 | 0.00 | 0.00 | 93 | 1015.8 |
| 20260505011201 | 42 | 342 | 0.0 | 0.0 | 0.00 | 0.00 | 0.00 | 92 | 1015.7 |
| 20260505011004 | 42 | 342 | 0.0 | 0.0 | 0.00 | 0.00 | 0.00 | 92 | 1015.7 |
| 20260505010801 | 42 | 342 | 0.0 | 0.0 | 0.00 | 0.00 | 0.00 | 93 | 1015.7 |
| 20260505010401 | 42 | 342 | 0.0 | 0.0 | 0.00 | 0.00 | 0.00 | 93 | 1015.7 |
| 20260505010202 | 42 | 342 | 0.0 | 0.0 | 0.00 | 0.00 | 0.00 | 92 | 1015.7 |
| 20260505010007 | 42 | 342 | 0.0 | 0.0 | 0.00 | 0.00 | 0.00 | 92 | 1015.6 |
| 20260505005801 | 42 | 342 | 0.0 | 0.0 | 0.00 | 0.00 | 0.00 | 92 | 1015.7 |
| 20260505005201 | 42 | 342 | 0.0 | 0.0 | 0.00 | 0.00 | 0.00 | 92 | 1015.7 |
| 20260505005005 | 42 | 342 | 0.0 | 0.0 | 0.00 | 0.00 | 0.00 | 92 | 1015.8 |
| 20260505004801 | 42 | 342 | 0.0 | 0.0 | 0.00 | 0.00 | 0.00 | 92 | 1015.8 |
| 20260505004601 | 42 | 342 | 0.0 | 0.0 | 0.00 | 0.00 | 0.00 | 92 | 1015.7 |
| 20260505004201 | 42 | 342 | 0.0 | 0.0 | 0.00 | 0.00 | 0.00 | 92 | 1015.8 |
| 20260505004003 | 42 | 342 | 0.0 | 0.0 | 0.00 | 0.00 | 0.00 | 92 | 1015.8 |
| 20260505003801 | 42 | 342 | 0.0 | 0.0 | 0.00 | 0.00 | 0.00 | 92 | 1015.8 |
| 20260505003601 | 42 | 342 | 0.0 | 0.0 | 0.00 | 0.00 | 0.00 | 91 | 1015.8 |
| 20260505003201 | 43 | 342 | 0.0 | 0.0 | 0.00 | 0.00 | 0.00 | 92 | 1015.9 |
| 20260505002802 | 43 | 342 | 0.0 | 0.0 | 0.00 | 0.00 | 0.00 | 92 | 1016.0 |
| 20260505002602 | 43 | 342 | 0.0 | 0.0 | 0.00 | 0.00 | 0.00 | 92 | 1015.9 |
| 20260505002401 | 43 | 342 | 0.0 | 0.0 | 0.00 | 0.00 | 0.00 | 91 | 1015.9 |
| 20260505002203 | 43 | 342 | 0.0 | 0.0 | 0.00 | 0.00 | 0.00 | 92 | 1015.9 |
| 20260505002005 | 43 | 344 | 0.0 | 1.0 | 0.00 | 0.00 | 0.00 | 91 | 1015.9 |
| 20260505001802 | 43 | 344 | 0.0 | 1.0 | 0.00 | 0.00 | 0.00 | 91 | 1015.9 |
| 20260505001601 | 43 | 344 | 0.0 | 1.0 | 0.00 | 0.00 | 0.00 | 91 | 1015.8 |
| 20260505001403 | 43 | 344 | 0.0 | 1.0 | 0.00 | 0.00 | 0.00 | 91 | 1015.9 |
| 20260505001201 | 43 | 344 | 0.0 | 1.0 | 0.00 | 0.00 | 0.00 | 91 | 1015.9 |
| 20260505001012 | 43 | 344 | 0.0 | 0.0 | 0.00 | 0.00 | 0.00 | 91 | 1015.8 |
| 20260505000801 | 43 | 344 | 0.0 | 0.0 | 0.00 | 0.00 | 0.00 | 91 | 1015.9 |
| 20260505000602 | 43 | 344 | 0.0 | 0.0 | 0.00 | 0.00 | 0.00 | 91 | 1015.9 |
| 20260505000401 | 43 | 343 | 0.0 | 0.0 | 0.00 | 0.00 | 0.00 | 91 | 1016.0 |
| 20260505000201 | 43 | 343 | 0.0 | 1.0 | 0.00 | 0.00 | 0.00 | 91 | 1016.0 |
| 20260505000007 | 43 | 343 | 0.0 | 1.0 | 0.00 | 0.00 | 0.00 | 91 | 1016.0 |
| 20260504235802 | 43 | 344 | 0.0 | 1.0 | 0.00 | 0.00 | 0.00 | 91 | 1016.0 |
| 20260504235601 | 43 | 343 | 0.0 | 1.0 | 0.00 | 0.00 | 0.00 | 91 | 1016.0 |
| 20260504235401 | 43 | 344 | 0.0 | 1.0 | 0.00 | 0.00 | 0.00 | 90 | 1016.1 |
| 20260504235201 | 43 | 343 | 0.0 | 1.0 | 0.00 | 0.00 | 0.00 | 90 | 1016.0 |
| 20260504234601 | 43 | 299 | 0.0 | 0.0 | 0.00 | 0.00 | 0.00 | 90 | 1016.1 |
| 20260504234401 | 43 | 299 | 0.0 | 0.0 | 0.00 | 0.00 | 0.00 | 90 | 1016.1 |
| 20260504234201 | 44 | 299 | 0.0 | 0.0 | 0.00 | 0.00 | 0.00 | 90 | 1016.2 |
| 20260504234005 | 44 | 299 | 0.0 | 0.0 | 0.00 | 0.00 | 0.00 | 90 | 1016.1 |
| 20260504233602 | 44 | 299 | 0.0 | 0.0 | 0.00 | 0.00 | 0.00 | 90 | 1016.2 |
| 20260504233402 | 44 | 299 | 0.0 | 0.0 | 0.00 | 0.00 | 0.00 | 90 | 1016.2 |
| 20260504233201 | 43 | 299 | 0.0 | 0.0 | 0.00 | 0.00 | 0.00 | 90 | 1016.1 |
| 20260504233004 | 43 | 299 | 0.0 | 0.0 | 0.00 | 0.00 | 0.00 | 89 | 1016.2 |
| 20260504232601 | 44 | 299 | 0.0 | 0.0 | 0.00 | 0.00 | 0.00 | 89 | 1016.1 |
| 20260504232401 | 44 | 299 | 0.0 | 0.0 | 0.00 | 0.00 | 0.00 | 89 | 1016.2 |
| 20260504232200 | 44 | 299 | 0.0 | 0.0 | 0.00 | 0.00 | 0.00 | 89 | 1016.2 |
| 20260504231801 | 44 | 299 | 0.0 | 0.0 | 0.00 | 0.00 | 0.00 | 89 | 1016.2 |
| 20260504231602 | 44 | 299 | 0.0 | 0.0 | 0.00 | 0.00 | 0.00 | 89 | 1016.1 |
| 20260504231400 | 44 | 299 | 0.0 | 0.0 | 0.00 | 0.00 | 0.00 | 89 | 1016.2 |
| 20260504231202 | 44 | 299 | 0.0 | 0.0 | 0.00 | 0.00 | 0.00 | 89 | 1016.1 |
| 20260504231002 | 44 | 299 | 0.0 | 0.0 | 0.00 | 0.00 | 0.00 | 89 | 1016.1 |
| 20260504230803 | 44 | 299 | 0.0 | 0.0 | 0.00 | 0.00 | 0.00 | 89 | 1016.2 |
| 20260504230601 | 44 | 299 | 0.0 | 0.0 | 0.00 | 0.00 | 0.00 | 89 | 1016.2 |
| 20260504230402 | 44 | 299 | 0.0 | 0.0 | 0.00 | 0.00 | 0.00 | 88 | 1016.1 |
| 20260504230204 | 44 | 299 | 0.0 | 0.0 | 0.00 | 0.00 | 0.00 | 88 | 1016.1 |
| 20260504230010 | 44 | 299 | 0.0 | 0.0 | 0.00 | 0.00 | 0.00 | 88 | 1016.2 |
| 20260504225804 | 45 | 299 | 0.0 | 0.0 | 0.00 | 0.00 | 0.00 | 88 | 1016.2 |
| 20260504225604 | 45 | 299 | 0.0 | 0.0 | 0.00 | 0.00 | 0.00 | 88 | 1016.2 |
| 20260504225407 | 45 | 299 | 0.0 | 0.0 | 0.00 | 0.00 | 0.00 | 88 | 1016.2 |
| 20260504225204 | 45 | 299 | 0.0 | 0.0 | 0.00 | 0.00 | 0.00 | 88 | 1016.2 |
| 20260504225006 | 45 | 299 | 0.0 | 0.0 | 0.00 | 0.00 | 0.00 | 88 | 1016.2 |
| 20260504224804 | 45 | 299 | 0.0 | 0.0 | 0.00 | 0.00 | 0.00 | 88 | 1016.3 |
| 20260504224606 | 45 | 299 | 0.0 | 0.0 | 0.00 | 0.00 | 0.00 | 88 | 1016.2 |
| 20260504224404 | 45 | 299 | 0.0 | 1.0 | 0.00 | 0.00 | 0.00 | 88 | 1016.2 |
| 20260504224205 | 45 | 299 | 0.0 | 1.0 | 0.00 | 0.00 | 0.00 | 88 | 1016.3 |
| 20260504224004 | 45 | 299 | 0.0 | 1.0 | 0.00 | 0.00 | 0.00 | 88 | 1016.3 |
| 20260504223604 | 45 | 299 | 0.0 | 1.0 | 0.00 | 0.00 | 0.00 | 88 | 1016.2 |
| 20260504223404 | 45 | 323 | 0.0 | 0.0 | 0.00 | 0.00 | 0.00 | 88 | 1016.3 |
| 20260504223205 | 45 | 323 | 0.0 | 0.0 | 0.00 | 0.00 | 0.00 | 88 | 1016.3 |
| 20260504223004 | 45 | 323 | 0.0 | 0.0 | 0.00 | 0.00 | 0.00 | 88 | 1016.3 |
| 20260504222805 | 45 | 323 | 0.0 | 0.0 | 0.00 | 0.00 | 0.00 | 88 | 1016.3 |
| 20260504222604 | 45 | 327 | 0.0 | 0.0 | 0.00 | 0.00 | 0.00 | 88 | 1016.3 |
| 20260504222405 | 45 | 327 | 0.0 | 0.0 | 0.00 | 0.00 | 0.00 | 88 | 1016.2 |
| 20260504222204 | 45 | 327 | 0.0 | 0.0 | 0.00 | 0.00 | 0.00 | 88 | 1016.3 |
| 20260504222006 | 45 | 327 | 0.0 | 0.0 | 0.00 | 0.00 | 0.00 | 88 | 1016.3 |
| 20260504221804 | 45 | 327 | 0.0 | 0.0 | 0.00 | 0.00 | 0.00 | 87 | 1016.3 |
| 20260504221206 | 45 | 327 | 0.0 | 0.0 | 0.00 | 0.00 | 0.00 | 87 | 1016.3 |
| 20260504221005 | 45 | 327 | 0.0 | 0.0 | 0.00 | 0.00 | 0.00 | 87 | 1016.3 |
| 20260504220805 | 45 | 327 | 0.0 | 0.0 | 0.00 | 0.00 | 0.00 | 87 | 1016.3 |
| 20260504220604 | 45 | 327 | 0.0 | 0.0 | 0.00 | 0.00 | 0.00 | 87 | 1016.3 |
| 20260504220405 | 45 | 327 | 0.0 | 0.0 | 0.00 | 0.00 | 0.00 | 87 | 1016.4 |
| 20260504220204 | 46 | 327 | 0.0 | 0.0 | 0.00 | 0.00 | 0.00 | 87 | 1016.4 |
| 20260504220008 | 46 | 327 | 0.0 | 0.0 | 0.00 | 0.00 | 0.00 | 86 | 1016.3 |
| 20260504215804 | 46 | 327 | 0.0 | 0.0 | 0.00 | 0.00 | 0.00 | 86 | 1016.4 |
| 20260504215405 | 46 | 298 | 0.0 | 0.0 | 0.00 | 0.00 | 0.00 | 86 | 1016.4 |
| 20260504215204 | 46 | 298 | 0.0 | 0.0 | 0.00 | 0.00 | 0.00 | 86 | 1016.4 |
| 20260504215007 | 46 | 298 | 0.0 | 0.0 | 0.00 | 0.00 | 0.00 | 86 | 1016.4 |
| 20260504214804 | 46 | 299 | 0.0 | 0.0 | 0.00 | 0.00 | 0.00 | 86 | 1016.4 |
| 20260504214605 | 46 | 299 | 0.0 | 0.0 | 0.00 | 0.00 | 0.00 | 85 | 1016.4 |
| 20260504214205 | 46 | 299 | 0.0 | 0.0 | 0.00 | 0.00 | 0.00 | 85 | 1016.3 |
| 20260504214005 | 46 | 299 | 0.0 | 0.0 | 0.00 | 0.00 | 0.00 | 85 | 1016.3 |
| 20260504213805 | 46 | 299 | 0.0 | 0.0 | 0.00 | 0.00 | 0.00 | 85 | 1016.4 |
| 20260504213406 | 46 | 280 | 0.0 | 0.0 | 0.00 | 0.00 | 0.00 | 85 | 1016.4 |
| 20260504213204 | 46 | 280 | 0.0 | 0.0 | 0.00 | 0.00 | 0.00 | 85 | 1016.4 |
| 20260504213004 | 46 | 280 | 0.0 | 0.0 | 0.00 | 0.00 | 0.00 | 84 | 1016.3 |
| 20260504212803 | 47 | 278 | 0.0 | 0.0 | 0.00 | 0.00 | 0.00 | 84 | 1016.4 |
| 20260504212004 | 47 | 233 | 0.0 | 0.0 | 0.00 | 0.00 | 0.00 | 84 | 1016.3 |
| 20260504211804 | 47 | 233 | 0.0 | 0.0 | 0.00 | 0.00 | 0.00 | 83 | 1016.3 |
| 20260504211404 | 47 | 330 | 0.0 | 0.0 | 0.00 | 0.00 | 0.00 | 83 | 1016.4 |
| 20260504211005 | 47 | 331 | 0.0 | 2.0 | 0.00 | 0.00 | 0.00 | 83 | 1016.3 |
| 20260504210804 | 47 | 331 | 0.0 | 2.0 | 0.00 | 0.00 | 0.00 | 83 | 1016.3 |
| 20260504210604 | 48 | 8 | 0.0 | 2.0 | 0.00 | 0.00 | 0.00 | 83 | 1016.3 |
| 20260504210405 | 48 | 316 | 1.0 | 2.0 | 0.00 | 0.00 | 0.00 | 83 | 1016.3 |
| 20260504210204 | 48 | 41 | 0.0 | 2.0 | 0.00 | 0.00 | 0.00 | 82 | 1016.3 |
| 20260504205603 | 48 | 352 | 1.0 | 2.0 | 0.00 | 0.00 | 0.00 | 82 | 1016.4 |
| 20260504205406 | 48 | 324 | 0.0 | 2.0 | 0.00 | 0.00 | 0.00 | 82 | 1016.4 |
| 20260504205006 | 48 | 337 | 1.0 | 2.0 | 0.00 | 0.00 | 0.00 | 82 | 1016.4 |
| 20260504204804 | 48 | 327 | 1.0 | 2.0 | 0.00 | 0.00 | 0.00 | 82 | 1016.3 |
| 20260504204606 | 48 | 341 | 2.0 | 2.0 | 0.00 | 0.00 | 0.00 | 82 | 1016.4 |
| 20260504204207 | 48 | 328 | 1.0 | 2.0 | 0.00 | 0.00 | 0.00 | 82 | 1016.4 |
| 20260504203805 | 48 | 340 | 0.0 | 3.0 | 0.00 | 0.00 | 0.00 | 81 | 1016.4 |
| 20260504203604 | 49 | 318 | 0.0 | 3.0 | 0.00 | 0.00 | 0.00 | 81 | 1016.4 |
| 20260504203404 | 49 | 321 | 1.0 | 3.0 | 0.00 | 0.00 | 0.00 | 81 | 1016.3 |
| 20260504203205 | 49 | 316 | 1.0 | 4.0 | 0.00 | 0.00 | 0.00 | 81 | 1016.2 |
| 20260504203005 | 49 | 330 | 0.0 | 4.0 | 0.00 | 0.00 | 0.00 | 81 | 1016.3 |
| 20260504202804 | 49 | 3 | 1.0 | 4.0 | 0.00 | 0.00 | 0.00 | 81 | 1016.2 |
| 20260504202605 | 49 | 315 | 2.0 | 4.0 | 0.00 | 0.00 | 0.00 | 81 | 1016.2 |
| 20260504202406 | 49 | 31 | 0.0 | 4.0 | 0.00 | 0.00 | 0.00 | 80 | 1016.3 |
| 20260504202205 | 49 | 6 | 1.0 | 5.0 | 0.00 | 0.00 | 0.00 | 80 | 1016.3 |
| 20260504202006 | 49 | 335 | 1.0 | 5.0 | 0.00 | 0.00 | 0.00 | 80 | 1016.3 |
| 20260504201806 | 49 | 15 | 2.0 | 5.0 | 0.00 | 0.00 | 0.00 | 80 | 1016.2 |
| 20260504201604 | 49 | 339 | 2.0 | 5.0 | 0.00 | 0.00 | 0.00 | 80 | 1016.2 |
| 20260504201405 | 49 | 346 | 2.0 | 5.0 | 0.00 | 0.00 | 0.00 | 80 | 1016.2 |
| 20260504201204 | 49 | 341 | 2.0 | 4.0 | 0.00 | 0.00 | 0.00 | 80 | 1016.2 |
| 20260504201007 | 49 | 321 | 2.0 | 4.0 | 0.00 | 0.00 | 0.00 | 80 | 1016.1 |
| 20260504200805 | 50 | 311 | 1.0 | 4.0 | 0.00 | 0.00 | 0.00 | 79 | 1016.1 |
| 20260504200605 | 50 | 25 | 2.0 | 4.0 | 0.00 | 0.00 | 0.00 | 79 | 1016.2 |
| 20260504200404 | 50 | 345 | 2.0 | 4.0 | 0.00 | 0.00 | 0.00 | 79 | 1016.2 |
| 20260504200206 | 50 | 332 | 2.0 | 4.0 | 0.00 | 0.00 | 0.00 | 79 | 1016.1 |
| 20260504195604 | 50 | 338 | 1.0 | 6.0 | 0.00 | 0.00 | 0.00 | 79 | 1016.1 |
| 20260504195405 | 50 | 34 | 1.0 | 6.0 | 0.00 | 0.00 | 0.00 | 79 | 1016.1 |
| 20260504195204 | 50 | 12 | 2.0 | 6.0 | 0.00 | 0.00 | 0.00 | 78 | 1016.1 |
| 20260504195005 | 50 | 1 | 2.0 | 6.0 | 0.00 | 0.00 | 0.00 | 78 | 1016.0 |
| 20260504194804 | 51 | 341 | 3.0 | 6.0 | 0.00 | 0.00 | 0.00 | 78 | 1016.1 |
| 20260504194604 | 51 | 309 | 2.0 | 6.0 | 0.00 | 0.00 | 0.00 | 78 | 1016.0 |
| 20260504194404 | 51 | 325 | 3.0 | 6.0 | 0.00 | 0.00 | 0.00 | 78 | 1016.1 |
| 20260504194204 | 51 | 3 | 2.0 | 7.0 | 0.00 | 0.00 | 0.00 | 78 | 1016.1 |
| 20260504193804 | 51 | 326 | 2.0 | 7.0 | 0.00 | 0.00 | 0.00 | 78 | 1016.1 |
| 20260504193604 | 51 | 12 | 2.0 | 7.0 | 0.00 | 0.00 | 0.00 | 78 | 1016.1 |
| 20260504193404 | 51 | 313 | 2.0 | 6.0 | 0.00 | 0.00 | 0.00 | 78 | 1016.1 |
| 20260504193204 | 51 | 289 | 2.0 | 5.0 | 0.00 | 0.00 | 0.00 | 78 | 1016.1 |
| 20260504192804 | 51 | 326 | 1.0 | 5.0 | 0.00 | 0.00 | 0.00 | 78 | 1016.0 |
| 20260504192404 | 52 | 338 | 2.0 | 5.0 | 0.00 | 0.00 | 0.00 | 77 | 1016.0 |
| 20260504192204 | 52 | 326 | 2.0 | 5.0 | 0.00 | 0.00 | 0.00 | 77 | 1016.0 |
| 20260504192005 | 52 | 342 | 2.0 | 5.0 | 0.00 | 0.00 | 0.00 | 77 | 1016.0 |
| 20260504191804 | 52 | 263 | 2.0 | 5.0 | 0.00 | 0.00 | 0.00 | 77 | 1016.0 |
| 20260504191606 | 52 | 333 | 2.0 | 5.0 | 0.00 | 0.00 | 0.00 | 77 | 1016.0 |
| 20260504191404 | 52 | 328 | 3.0 | 5.0 | 0.00 | 0.00 | 0.00 | 77 | 1016.0 |
| 20260504191204 | 52 | 360 | 1.0 | 6.0 | 0.00 | 0.00 | 0.00 | 77 | 1016.0 |
| 20260504191007 | 52 | 320 | 2.0 | 6.0 | 0.00 | 0.00 | 0.00 | 76 | 1016.0 |
| 20260504190805 | 52 | 357 | 1.0 | 6.0 | 0.00 | 0.00 | 0.00 | 76 | 1015.9 |
| 20260504190606 | 52 | 307 | 1.0 | 7.0 | 0.00 | 0.00 | 0.00 | 76 | 1015.9 |
| 20260504190404 | 53 | 334 | 3.0 | 8.0 | 0.00 | 0.00 | 0.00 | 76 | 1015.9 |
| 20260504190206 | 53 | 14 | 1.0 | 8.0 | 0.00 | 0.00 | 0.00 | 76 | 1015.9 |
| 20260504190008 | 53 | 281 | 2.0 | 8.0 | 0.00 | 0.00 | 0.00 | 76 | 1016.0 |
| 20260504185806 | 53 | 289 | 3.0 | 8.0 | 0.00 | 0.00 | 0.00 | 76 | 1015.9 |
| 20260504185604 | 53 | 239 | 3.0 | 9.0 | 0.00 | 0.00 | 0.00 | 75 | 1015.9 |
| 20260504185405 | 54 | 342 | 1.0 | 9.0 | 0.00 | 0.00 | 0.00 | 75 | 1015.9 |
| 20260504185204 | 54 | 321 | 2.0 | 9.0 | 0.00 | 0.00 | 0.00 | 75 | 1015.9 |
| 20260504185007 | 54 | 326 | 4.0 | 9.0 | 0.00 | 0.00 | 0.00 | 75 | 1015.9 |
| 20260504184804 | 54 | 305 | 1.0 | 9.0 | 0.00 | 0.00 | 0.00 | 75 | 1015.8 |
| 20260504184404 | 54 | 345 | 2.0 | 9.0 | 0.00 | 0.00 | 0.00 | 76 | 1015.8 |
| 20260504184206 | 54 | 359 | 3.0 | 9.0 | 0.00 | 0.00 | 0.00 | 75 | 1015.8 |
| 20260504184005 | 54 | 5 | 4.0 | 8.0 | 0.00 | 0.00 | 0.00 | 75 | 1015.8 |
| 20260504183805 | 54 | 343 | 2.0 | 8.0 | 0.00 | 0.00 | 0.00 | 75 | 1015.8 |